Year,Month,Day,Hour,Minute,Value (Times are PST for temperature in C)
2008,08,05,00,00,15.30
2008,08,05,00,01,15.30
2008,08,05,00,02,15.30
2008,08,05,00,03,15.30
2008,08,05,00,04,15.30
2008,08,05,00,05,15.30
2008,08,05,00,06,15.30
2008,08,05,00,07,15.30
2008,08,05,00,08,15.30
2008,08,05,00,09,15.30
2008,08,05,00,10,15.30
2008,08,05,00,11,15.30
2008,08,05,00,12,15.30
2008,08,05,00,13,15.30
2008,08,05,00,14,15.30
2008,08,05,00,15,15.30
2008,08,05,00,16,15.30
2008,08,05,00,17,15.20
2008,08,05,00,18,15.20
2008,08,05,00,19,15.20
2008,08,05,00,20,15.20
2008,08,05,00,21,15.20
2008,08,05,00,22,15.20
2008,08,05,00,23,15.20
2008,08,05,00,24,15.20
2008,08,05,00,25,15.20
2008,08,05,00,26,15.10
2008,08,05,00,27,15.10
2008,08,05,00,28,15.00
2008,08,05,00,29,15.00
2008,08,05,00,30,15.00
2008,08,05,00,31,15.00
2008,08,05,00,32,15.00
2008,08,05,00,33,15.00
2008,08,05,00,34,15.00
2008,08,05,00,35,15.00
2008,08,05,00,36,15.00
2008,08,05,00,37,15.00
2008,08,05,00,38,15.00
2008,08,05,00,39,15.00
2008,08,05,00,40,15.00
2008,08,05,00,41,15.00
2008,08,05,00,42,15.00
2008,08,05,00,43,15.00
2008,08,05,00,44,15.00
2008,08,05,00,45,15.00
2008,08,05,00,46,15.00
2008,08,05,00,47,15.00
2008,08,05,00,48,15.10
2008,08,05,00,49,15.10
2008,08,05,00,50,15.10
2008,08,05,00,51,15.20
2008,08,05,00,52,15.20
2008,08,05,00,53,15.20
2008,08,05,00,54,15.20
2008,08,05,00,55,15.20
2008,08,05,00,56,15.20
2008,08,05,00,57,15.20
2008,08,05,00,58,15.20
2008,08,05,00,59,15.30
2008,08,05,01,00,15.30
2008,08,05,01,01,15.40
2008,08,05,01,02,15.50
2008,08,05,01,03,15.60
2008,08,05,01,04,15.60
2008,08,05,01,05,15.70
2008,08,05,01,06,15.70
2008,08,05,01,07,15.80
2008,08,05,01,08,16.00
2008,08,05,01,09,16.10
2008,08,05,01,10,16.20
2008,08,05,01,11,16.30
2008,08,05,01,12,16.30
2008,08,05,01,13,16.40
2008,08,05,01,14,16.50
2008,08,05,01,15,16.60
2008,08,05,01,16,16.70
2008,08,05,01,17,16.90
2008,08,05,01,18,17.00
2008,08,05,01,19,17.10
2008,08,05,01,20,17.20
2008,08,05,01,21,17.20
2008,08,05,01,22,17.30
2008,08,05,01,23,17.30
2008,08,05,01,24,17.30
2008,08,05,01,25,17.40
2008,08,05,01,26,17.40
2008,08,05,01,27,17.50
2008,08,05,01,28,17.50
2008,08,05,01,29,17.50
2008,08,05,01,30,17.50
2008,08,05,01,31,17.50
2008,08,05,01,32,17.50
2008,08,05,01,33,17.50
2008,08,05,01,34,17.50
2008,08,05,01,35,17.60
2008,08,05,01,36,17.50
2008,08,05,01,37,17.50
2008,08,05,01,38,17.50
2008,08,05,01,39,17.40
2008,08,05,01,40,17.40
2008,08,05,01,41,17.30
2008,08,05,01,42,17.30
2008,08,05,01,43,17.30
2008,08,05,01,44,17.20
2008,08,05,01,45,17.10
2008,08,05,01,46,17.00
2008,08,05,01,47,17.00
2008,08,05,01,48,16.90
2008,08,05,01,49,16.80
2008,08,05,01,50,16.70
2008,08,05,01,51,16.70
2008,08,05,01,52,16.60
2008,08,05,01,53,16.60
2008,08,05,01,54,16.50
2008,08,05,01,55,16.50
2008,08,05,01,56,16.50
2008,08,05,01,57,16.40
2008,08,05,01,58,16.40
2008,08,05,01,59,16.40
2008,08,05,02,00,16.40
2008,08,05,02,01,16.40
2008,08,05,02,02,16.40
2008,08,05,02,03,16.40
2008,08,05,02,04,16.50
2008,08,05,02,05,16.50
2008,08,05,02,06,16.50
2008,08,05,02,07,16.50
2008,08,05,02,08,16.50
2008,08,05,02,09,16.40
2008,08,05,02,10,16.40
2008,08,05,02,11,16.30
2008,08,05,02,12,16.30
2008,08,05,02,13,16.20
2008,08,05,02,14,16.20
2008,08,05,02,15,16.20
2008,08,05,02,16,16.10
2008,08,05,02,17,16.10
2008,08,05,02,18,16.10
2008,08,05,02,19,16.10
2008,08,05,02,20,16.10
2008,08,05,02,21,16.10
2008,08,05,02,22,16.10
2008,08,05,02,23,16.00
2008,08,05,02,24,16.00
2008,08,05,02,25,16.00
2008,08,05,02,26,16.00
2008,08,05,02,27,16.00
2008,08,05,02,28,16.00
2008,08,05,02,29,15.90
2008,08,05,02,30,15.90
2008,08,05,02,31,15.90
2008,08,05,02,32,15.90
2008,08,05,02,33,15.80
2008,08,05,02,34,15.80
2008,08,05,02,35,15.80
2008,08,05,02,36,15.80
2008,08,05,02,37,15.80
2008,08,05,02,38,15.80
2008,08,05,02,39,15.80
2008,08,05,02,40,15.80
2008,08,05,02,41,15.80
2008,08,05,02,42,15.80
2008,08,05,02,43,15.80
2008,08,05,02,44,15.80
2008,08,05,02,45,15.80
2008,08,05,02,46,15.80
2008,08,05,02,47,15.80
2008,08,05,02,48,15.80
2008,08,05,02,49,15.80
2008,08,05,02,50,15.80
2008,08,05,02,51,15.80
2008,08,05,02,52,15.90
2008,08,05,02,53,15.90
2008,08,05,02,54,15.90
2008,08,05,02,55,15.90
2008,08,05,02,56,15.90
2008,08,05,02,57,15.90
2008,08,05,02,58,15.90
2008,08,05,02,59,15.90
2008,08,05,03,00,15.90
2008,08,05,03,01,15.90
2008,08,05,03,02,16.00
2008,08,05,03,03,16.00
2008,08,05,03,04,16.00
2008,08,05,03,05,16.00
2008,08,05,03,06,16.00
2008,08,05,03,07,16.00
2008,08,05,03,08,16.10
2008,08,05,03,09,16.10
2008,08,05,03,10,16.00
2008,08,05,03,11,16.00
2008,08,05,03,12,16.00
2008,08,05,03,13,16.00
2008,08,05,03,14,16.00
2008,08,05,03,15,16.00
2008,08,05,03,16,16.00
2008,08,05,03,17,16.00
2008,08,05,03,18,16.00
2008,08,05,03,19,15.90
2008,08,05,03,20,15.90
2008,08,05,03,21,15.90
2008,08,05,03,22,15.90
2008,08,05,03,23,15.90
2008,08,05,03,24,15.90
2008,08,05,03,25,15.90
2008,08,05,03,26,15.90
2008,08,05,03,27,15.90
2008,08,05,03,28,15.80
2008,08,05,03,29,15.80
2008,08,05,03,30,15.80
2008,08,05,03,31,15.80
2008,08,05,03,32,15.70
2008,08,05,03,33,15.70
2008,08,05,03,34,15.70
2008,08,05,03,35,15.70
2008,08,05,03,36,15.70
2008,08,05,03,37,15.70
2008,08,05,03,38,15.60
2008,08,05,03,39,15.60
2008,08,05,03,40,15.60
2008,08,05,03,41,15.60
2008,08,05,03,42,15.60
2008,08,05,03,43,15.60
2008,08,05,03,44,15.60
2008,08,05,03,45,15.60
2008,08,05,03,46,15.50
2008,08,05,03,47,15.50
2008,08,05,03,48,15.50
2008,08,05,03,49,15.50
2008,08,05,03,50,15.60
2008,08,05,03,51,15.60
2008,08,05,03,52,15.60
2008,08,05,03,53,15.60
2008,08,05,03,54,15.60
2008,08,05,03,55,15.70
2008,08,05,03,56,15.70
2008,08,05,03,57,15.70
2008,08,05,03,58,15.70
2008,08,05,03,59,15.70
2008,08,05,04,00,15.70
2008,08,05,04,01,15.80
2008,08,05,04,02,15.80
2008,08,05,04,03,15.90
2008,08,05,04,04,15.90
2008,08,05,04,05,16.00
2008,08,05,04,06,16.00
2008,08,05,04,07,16.10
2008,08,05,04,08,16.10
2008,08,05,04,09,16.10
2008,08,05,04,10,16.20
2008,08,05,04,11,16.20
2008,08,05,04,12,16.10
2008,08,05,04,13,16.10
2008,08,05,04,14,16.10
2008,08,05,04,15,16.10
2008,08,05,04,16,16.10
2008,08,05,04,17,16.10
2008,08,05,04,18,16.10
2008,08,05,04,19,16.10
2008,08,05,04,20,16.10
2008,08,05,04,21,16.10
2008,08,05,04,22,16.00
2008,08,05,04,23,16.00
2008,08,05,04,24,15.90
2008,08,05,04,25,15.90
2008,08,05,04,26,15.90
2008,08,05,04,27,15.90
2008,08,05,04,28,15.80
2008,08,05,04,29,15.80
2008,08,05,04,30,15.70
2008,08,05,04,31,15.70
2008,08,05,04,32,15.70
2008,08,05,04,33,15.70
2008,08,05,04,34,15.60
2008,08,05,04,35,15.60
2008,08,05,04,36,15.60
2008,08,05,04,37,15.60
2008,08,05,04,38,15.60
2008,08,05,04,39,15.60
2008,08,05,04,40,15.60
2008,08,05,04,41,15.60
2008,08,05,04,42,15.60
2008,08,05,04,43,15.60
2008,08,05,04,44,15.60
2008,08,05,04,45,15.60
2008,08,05,04,46,15.60
2008,08,05,04,47,15.60
2008,08,05,04,48,15.60
2008,08,05,04,49,15.60
2008,08,05,04,50,15.60
2008,08,05,04,51,15.70
2008,08,05,04,52,15.70
2008,08,05,04,53,15.70
2008,08,05,04,54,15.70
2008,08,05,04,55,15.70
2008,08,05,04,56,15.70
2008,08,05,04,57,15.70
2008,08,05,04,58,15.70
2008,08,05,04,59,15.70
2008,08,05,05,00,15.70
2008,08,05,05,01,15.70
2008,08,05,05,02,15.70
2008,08,05,05,03,15.70
2008,08,05,05,04,15.70
2008,08,05,05,05,15.70
2008,08,05,05,06,15.80
2008,08,05,05,07,15.80
2008,08,05,05,08,15.80
2008,08,05,05,09,15.80
2008,08,05,05,10,15.80
2008,08,05,05,11,15.80
2008,08,05,05,12,15.80
2008,08,05,05,13,15.80
2008,08,05,05,14,15.80
2008,08,05,05,15,15.80
2008,08,05,05,16,15.80
2008,08,05,05,17,15.80
2008,08,05,05,18,15.80
2008,08,05,05,19,15.80
2008,08,05,05,20,15.80
2008,08,05,05,21,15.80
2008,08,05,05,22,15.80
2008,08,05,05,23,15.80
2008,08,05,05,24,15.80
2008,08,05,05,25,15.90
2008,08,05,05,26,15.90
2008,08,05,05,27,15.90
2008,08,05,05,28,16.00
2008,08,05,05,29,16.00
2008,08,05,05,30,16.00
2008,08,05,05,31,16.00
2008,08,05,05,32,16.00
2008,08,05,05,33,16.00
2008,08,05,05,34,16.00
2008,08,05,05,35,15.90
2008,08,05,05,36,15.90
2008,08,05,05,37,15.80
2008,08,05,05,38,15.80
2008,08,05,05,39,15.80
2008,08,05,05,40,15.80
2008,08,05,05,41,15.70
2008,08,05,05,42,15.70
2008,08,05,05,43,15.70
2008,08,05,05,44,15.70
2008,08,05,05,45,15.60
2008,08,05,05,46,15.60
2008,08,05,05,47,15.60
2008,08,05,05,48,15.50
2008,08,05,05,49,15.50
2008,08,05,05,50,15.40
2008,08,05,05,51,15.40
2008,08,05,05,52,15.40
2008,08,05,05,53,15.30
2008,08,05,05,54,15.30
2008,08,05,05,55,15.20
2008,08,05,05,56,15.20
2008,08,05,05,57,15.10
2008,08,05,05,58,15.00
2008,08,05,05,59,15.00
2008,08,05,06,00,15.00
2008,08,05,06,01,15.00
2008,08,05,06,02,15.00
2008,08,05,06,03,15.00
2008,08,05,06,04,15.00
2008,08,05,06,05,15.00
2008,08,05,06,06,15.00
2008,08,05,06,07,15.00
2008,08,05,06,08,15.00
2008,08,05,06,09,15.00
2008,08,05,06,10,14.90
2008,08,05,06,11,14.90
2008,08,05,06,12,14.90
2008,08,05,06,13,14.90
2008,08,05,06,14,14.90
2008,08,05,06,15,15.00
2008,08,05,06,16,15.00
2008,08,05,06,17,15.00
2008,08,05,06,18,15.00
2008,08,05,06,19,15.00
2008,08,05,06,20,15.00
2008,08,05,06,21,15.00
2008,08,05,06,22,15.00
2008,08,05,06,23,15.10
2008,08,05,06,24,15.10
2008,08,05,06,25,15.10
2008,08,05,06,26,15.10
2008,08,05,06,27,15.00
2008,08,05,06,28,15.00
2008,08,05,06,29,15.00
2008,08,05,06,30,15.00
2008,08,05,06,31,15.00
2008,08,05,06,32,15.00
2008,08,05,06,33,15.00
2008,08,05,06,34,15.00
2008,08,05,06,35,15.00
2008,08,05,06,36,15.00
2008,08,05,06,37,15.00
2008,08,05,06,38,15.00
2008,08,05,06,39,15.00
2008,08,05,06,40,15.00
2008,08,05,06,41,15.00
2008,08,05,06,42,15.10
2008,08,05,06,43,15.20
2008,08,05,06,44,15.20
2008,08,05,06,45,15.30
2008,08,05,06,46,15.30
2008,08,05,06,47,15.30
2008,08,05,06,48,15.40
2008,08,05,06,49,15.40
2008,08,05,06,50,15.50
2008,08,05,06,51,15.60
2008,08,05,06,52,15.60
2008,08,05,06,53,15.70
2008,08,05,06,54,15.80
2008,08,05,06,55,15.90
2008,08,05,06,56,16.00
2008,08,05,06,57,16.10
2008,08,05,06,58,16.10
2008,08,05,06,59,16.20
2008,08,05,07,00,16.30
2008,08,05,07,01,16.40
2008,08,05,07,02,16.40
2008,08,05,07,03,16.50
2008,08,05,07,04,16.60
2008,08,05,07,05,16.70
2008,08,05,07,06,16.80
2008,08,05,07,07,16.90
2008,08,05,07,08,17.00
2008,08,05,07,09,17.10
2008,08,05,07,10,17.20
2008,08,05,07,11,17.20
2008,08,05,07,12,17.30
2008,08,05,07,13,17.40
2008,08,05,07,14,17.50
2008,08,05,07,15,17.60
2008,08,05,07,16,17.70
2008,08,05,07,17,17.90
2008,08,05,07,18,18.00
2008,08,05,07,19,18.00
2008,08,05,07,20,18.10
2008,08,05,07,21,18.20
2008,08,05,07,22,18.30
2008,08,05,07,23,18.30
2008,08,05,07,24,18.40
2008,08,05,07,25,18.50
2008,08,05,07,26,18.50
2008,08,05,07,27,18.60
2008,08,05,07,28,18.70
2008,08,05,07,29,18.70
2008,08,05,07,30,18.70
2008,08,05,07,31,18.70
2008,08,05,07,32,18.70
2008,08,05,07,33,18.80
2008,08,05,07,34,18.80
2008,08,05,07,35,18.90
2008,08,05,07,36,18.90
2008,08,05,07,37,19.00
2008,08,05,07,38,19.00
2008,08,05,07,39,19.10
2008,08,05,07,40,19.10
2008,08,05,07,41,19.20
2008,08,05,07,42,19.20
2008,08,05,07,43,19.30
2008,08,05,07,44,19.30
2008,08,05,07,45,19.40
2008,08,05,07,46,19.40
2008,08,05,07,47,19.50
2008,08,05,07,48,19.50
2008,08,05,07,49,19.60
2008,08,05,07,50,19.60
2008,08,05,07,51,19.70
2008,08,05,07,52,19.70
2008,08,05,07,53,19.70
2008,08,05,07,54,19.70
2008,08,05,07,55,19.70
2008,08,05,07,56,19.80
2008,08,05,07,57,19.70
2008,08,05,07,58,19.70
2008,08,05,07,59,19.80
2008,08,05,08,00,19.80
2008,08,05,08,01,19.80
2008,08,05,08,02,19.80
2008,08,05,08,03,19.80
2008,08,05,08,04,19.90
2008,08,05,08,05,20.00
2008,08,05,08,06,20.00
2008,08,05,08,07,20.00
2008,08,05,08,08,20.10
2008,08,05,08,09,20.20
2008,08,05,08,10,20.20
2008,08,05,08,11,20.30
2008,08,05,08,12,20.40
2008,08,05,08,13,20.50
2008,08,05,08,14,20.50
2008,08,05,08,15,20.60
2008,08,05,08,16,20.70
2008,08,05,08,17,20.80
2008,08,05,08,18,20.90
2008,08,05,08,19,21.00
2008,08,05,08,20,21.10
2008,08,05,08,21,21.20
2008,08,05,08,22,21.30
2008,08,05,08,23,21.30
2008,08,05,08,24,21.30
2008,08,05,08,25,21.30
2008,08,05,08,26,21.30
2008,08,05,08,27,21.30
2008,08,05,08,28,21.30
2008,08,05,08,29,21.30
2008,08,05,08,30,21.30
2008,08,05,08,31,21.30
2008,08,05,08,32,21.30
2008,08,05,08,33,21.30
2008,08,05,08,34,21.20
2008,08,05,08,35,21.30
2008,08,05,08,36,21.30
2008,08,05,08,37,21.30
2008,08,05,08,38,21.30
2008,08,05,08,39,21.30
2008,08,05,08,40,21.40
2008,08,05,08,41,21.40
2008,08,05,08,42,21.40
2008,08,05,08,43,21.40
2008,08,05,08,44,21.40
2008,08,05,08,45,21.40
2008,08,05,08,46,21.40
2008,08,05,08,47,21.40
2008,08,05,08,48,21.40
2008,08,05,08,49,21.40
2008,08,05,08,50,21.50
2008,08,05,08,51,21.50
2008,08,05,08,52,21.60
2008,08,05,08,53,21.70
2008,08,05,08,54,21.80
2008,08,05,08,55,21.90
2008,08,05,08,56,22.00
2008,08,05,08,57,22.10
2008,08,05,08,58,22.10
2008,08,05,08,59,22.20
2008,08,05,09,00,22.20
2008,08,05,09,01,22.20
2008,08,05,09,02,22.20
2008,08,05,09,03,22.20
2008,08,05,09,04,22.10
2008,08,05,09,05,22.10
2008,08,05,09,06,22.10
2008,08,05,09,07,22.10
2008,08,05,09,08,22.10
2008,08,05,09,09,22.20
2008,08,05,09,10,22.20
2008,08,05,09,11,22.30
2008,08,05,09,12,22.40
2008,08,05,09,13,22.50
2008,08,05,09,14,22.60
2008,08,05,09,15,22.60
2008,08,05,09,16,22.70
2008,08,05,09,17,22.80
2008,08,05,09,18,22.90
2008,08,05,09,19,23.00
2008,08,05,09,20,23.10
2008,08,05,09,21,23.10
2008,08,05,09,22,23.10
2008,08,05,09,23,23.20
2008,08,05,09,24,23.30
2008,08,05,09,25,23.40
2008,08,05,09,26,23.50
2008,08,05,09,27,23.60
2008,08,05,09,28,23.70
2008,08,05,09,29,23.80
2008,08,05,09,30,23.90
2008,08,05,09,31,23.90
2008,08,05,09,32,24.00
2008,08,05,09,33,24.10
2008,08,05,09,34,24.20
2008,08,05,09,35,24.20
2008,08,05,09,36,24.20
2008,08,05,09,37,24.30
2008,08,05,09,38,24.20
2008,08,05,09,39,24.20
2008,08,05,09,40,24.20
2008,08,05,09,41,24.20
2008,08,05,09,42,24.20
2008,08,05,09,43,24.20
2008,08,05,09,44,24.10
2008,08,05,09,45,24.10
2008,08,05,09,46,24.10
2008,08,05,09,47,24.20
2008,08,05,09,48,24.20
2008,08,05,09,49,24.20
2008,08,05,09,50,24.20
2008,08,05,09,51,24.20
2008,08,05,09,52,24.10
2008,08,05,09,53,24.00
2008,08,05,09,54,23.90
2008,08,05,09,55,24.00
2008,08,05,09,56,24.00
2008,08,05,09,57,24.00
2008,08,05,09,58,24.00
2008,08,05,09,59,24.00
2008,08,05,10,00,24.00
2008,08,05,10,01,24.10
2008,08,05,10,02,24.10
2008,08,05,10,03,24.10
2008,08,05,10,04,24.00
2008,08,05,10,05,23.90
2008,08,05,10,06,23.90
2008,08,05,10,07,23.80
2008,08,05,10,08,23.80
2008,08,05,10,09,23.80
2008,08,05,10,10,23.80
2008,08,05,10,11,23.80
2008,08,05,10,12,23.80
2008,08,05,10,13,23.80
2008,08,05,10,14,23.80
2008,08,05,10,15,23.90
2008,08,05,10,16,23.90
2008,08,05,10,17,24.00
2008,08,05,10,18,24.10
2008,08,05,10,19,24.10
2008,08,05,10,20,24.10
2008,08,05,10,21,24.00
2008,08,05,10,22,24.00
2008,08,05,10,23,23.90
2008,08,05,10,24,23.90
2008,08,05,10,25,23.80
2008,08,05,10,26,23.80
2008,08,05,10,27,23.90
2008,08,05,10,28,24.00
2008,08,05,10,29,24.00
2008,08,05,10,30,24.00
2008,08,05,10,31,24.10
2008,08,05,10,32,24.20
2008,08,05,10,33,24.20
2008,08,05,10,34,24.30
2008,08,05,10,35,24.40
2008,08,05,10,36,24.40
2008,08,05,10,37,24.40
2008,08,05,10,38,24.40
2008,08,05,10,39,24.40
2008,08,05,10,40,24.40
2008,08,05,10,41,24.50
2008,08,05,10,42,24.60
2008,08,05,10,43,24.60
2008,08,05,10,44,24.70
2008,08,05,10,45,24.80
2008,08,05,10,46,24.80
2008,08,05,10,47,24.80
2008,08,05,10,48,24.90
2008,08,05,10,49,24.90
2008,08,05,10,50,24.80
2008,08,05,10,51,24.60
2008,08,05,10,52,24.30
2008,08,05,10,53,24.10
2008,08,05,10,54,23.90
2008,08,05,10,55,23.80
2008,08,05,10,56,23.80
2008,08,05,10,57,23.90
2008,08,05,10,58,23.90
2008,08,05,10,59,24.00
2008,08,05,11,00,24.20
2008,08,05,11,01,24.20
2008,08,05,11,02,24.30
2008,08,05,11,03,24.40
2008,08,05,11,04,24.50
2008,08,05,11,05,24.60
2008,08,05,11,06,24.70
2008,08,05,11,07,24.80
2008,08,05,11,08,24.90
2008,08,05,11,09,25.00
2008,08,05,11,10,25.20
2008,08,05,11,11,25.30
2008,08,05,11,12,25.40
2008,08,05,11,13,25.50
2008,08,05,11,14,25.50
2008,08,05,11,15,25.60
2008,08,05,11,16,25.60
2008,08,05,11,17,25.70
2008,08,05,11,18,25.60
2008,08,05,11,19,25.50
2008,08,05,11,20,25.30
2008,08,05,11,21,25.20
2008,08,05,11,22,25.20
2008,08,05,11,23,25.20
2008,08,05,11,24,25.20
2008,08,05,11,25,25.20
2008,08,05,11,26,25.10
2008,08,05,11,27,24.90
2008,08,05,11,28,24.70
2008,08,05,11,29,24.60
2008,08,05,11,30,24.60
2008,08,05,11,31,24.60
2008,08,05,11,32,24.50
2008,08,05,11,33,24.50
2008,08,05,11,34,24.40
2008,08,05,11,35,24.40
2008,08,05,11,36,24.30
2008,08,05,11,37,24.10
2008,08,05,11,38,24.10
2008,08,05,11,39,24.00
2008,08,05,11,40,23.90
2008,08,05,11,41,23.90
2008,08,05,11,42,24.00
2008,08,05,11,43,24.00
2008,08,05,11,44,24.10
2008,08,05,11,45,24.20
2008,08,05,11,46,24.30
2008,08,05,11,47,24.40
2008,08,05,11,48,24.40
2008,08,05,11,49,24.30
2008,08,05,11,50,24.30
2008,08,05,11,51,24.20
2008,08,05,11,52,24.20
2008,08,05,11,53,24.30
2008,08,05,11,54,24.30
2008,08,05,11,55,24.20
2008,08,05,11,56,24.10
2008,08,05,11,57,24.10
2008,08,05,11,58,24.20
2008,08,05,11,59,24.30
2008,08,05,12,00,24.30
2008,08,05,12,01,24.40
2008,08,05,12,02,24.40
2008,08,05,12,03,24.30
2008,08,05,12,04,24.20
2008,08,05,12,05,24.30
2008,08,05,12,06,24.30
2008,08,05,12,07,24.40
2008,08,05,12,08,24.50
2008,08,05,12,09,24.60
2008,08,05,12,10,24.70
2008,08,05,12,11,24.70
2008,08,05,12,12,24.70
2008,08,05,12,13,24.60
2008,08,05,12,14,24.60
2008,08,05,12,15,24.70
2008,08,05,12,16,24.70
2008,08,05,12,17,24.70
2008,08,05,12,18,24.70
2008,08,05,12,19,24.70
2008,08,05,12,20,24.70
2008,08,05,12,21,24.60
2008,08,05,12,22,24.60
2008,08,05,12,23,24.60
2008,08,05,12,24,24.70
2008,08,05,12,25,24.70
2008,08,05,12,26,24.70
2008,08,05,12,27,24.70
2008,08,05,12,28,24.70
2008,08,05,12,29,24.70
2008,08,05,12,30,24.70
2008,08,05,12,31,24.70
2008,08,05,12,32,24.70
2008,08,05,12,33,24.80
2008,08,05,12,34,24.80
2008,08,05,12,35,24.90
2008,08,05,12,36,25.00
2008,08,05,12,37,25.20
2008,08,05,12,38,25.30
2008,08,05,12,39,25.50
2008,08,05,12,40,25.60
2008,08,05,12,41,25.70
2008,08,05,12,42,25.70
2008,08,05,12,43,25.80
2008,08,05,12,44,25.90
2008,08,05,12,45,26.10
2008,08,05,12,46,26.20
2008,08,05,12,47,26.10
2008,08,05,12,48,26.20
2008,08,05,12,49,26.10
2008,08,05,12,50,26.00
2008,08,05,12,51,26.00
2008,08,05,12,52,25.90
2008,08,05,12,53,25.80
2008,08,05,12,54,25.80
2008,08,05,12,55,25.80
2008,08,05,12,56,25.90
2008,08,05,12,57,25.90
2008,08,05,12,58,25.90
2008,08,05,12,59,26.00
2008,08,05,13,00,26.10
2008,08,05,13,01,26.00
2008,08,05,13,02,26.00
2008,08,05,13,03,26.00
2008,08,05,13,04,26.00
2008,08,05,13,05,25.90
2008,08,05,13,06,26.00
2008,08,05,13,07,26.10
2008,08,05,13,08,26.20
2008,08,05,13,09,26.20
2008,08,05,13,10,26.30
2008,08,05,13,11,26.30
2008,08,05,13,12,26.40
2008,08,05,13,13,26.50
2008,08,05,13,14,26.60
2008,08,05,13,15,26.70
2008,08,05,13,16,26.70
2008,08,05,13,17,26.70
2008,08,05,13,18,26.80
2008,08,05,13,19,26.80
2008,08,05,13,20,26.60
2008,08,05,13,21,26.50
2008,08,05,13,22,26.40
2008,08,05,13,23,26.40
2008,08,05,13,24,26.50
2008,08,05,13,25,26.60
2008,08,05,13,26,26.70
2008,08,05,13,27,26.80
2008,08,05,13,28,26.80
2008,08,05,13,29,26.80
2008,08,05,13,30,26.80
2008,08,05,13,31,26.80
2008,08,05,13,32,26.90
2008,08,05,13,33,26.90
2008,08,05,13,34,27.10
2008,08,05,13,35,27.20
2008,08,05,13,36,27.30
2008,08,05,13,37,27.50
2008,08,05,13,38,27.60
2008,08,05,13,39,27.70
2008,08,05,13,40,27.80
2008,08,05,13,41,27.80
2008,08,05,13,42,27.90
2008,08,05,13,43,28.00
2008,08,05,13,44,28.10
2008,08,05,13,45,28.10
2008,08,05,13,46,28.10
2008,08,05,13,47,28.20
2008,08,05,13,48,28.20
2008,08,05,13,49,28.20
2008,08,05,13,50,28.30
2008,08,05,13,51,28.40
2008,08,05,13,52,28.50
2008,08,05,13,53,28.60
2008,08,05,13,54,28.70
2008,08,05,13,55,28.70
2008,08,05,13,56,28.60
2008,08,05,13,57,28.70
2008,08,05,13,58,28.70
2008,08,05,13,59,28.60
2008,08,05,14,00,28.60
2008,08,05,14,01,28.60
2008,08,05,14,02,28.50
2008,08,05,14,03,28.40
2008,08,05,14,04,28.30
2008,08,05,14,05,28.30
2008,08,05,14,06,28.30
2008,08,05,14,07,28.30
2008,08,05,14,08,28.40
2008,08,05,14,09,28.40
2008,08,05,14,10,28.40
2008,08,05,14,11,28.50
2008,08,05,14,12,28.60
2008,08,05,14,13,28.70
2008,08,05,14,14,28.60
2008,08,05,14,15,28.60
2008,08,05,14,16,28.70
2008,08,05,14,17,28.70
2008,08,05,14,18,28.50
2008,08,05,14,19,28.30
2008,08,05,14,20,28.10
2008,08,05,14,21,27.90
2008,08,05,14,22,27.80
2008,08,05,14,23,27.60
2008,08,05,14,24,27.50
2008,08,05,14,25,27.40
2008,08,05,14,26,27.30
2008,08,05,14,27,27.20
2008,08,05,14,28,27.10
2008,08,05,14,29,27.00
2008,08,05,14,30,27.00
2008,08,05,14,31,27.10
2008,08,05,14,32,27.10
2008,08,05,14,33,27.20
2008,08,05,14,34,27.20
2008,08,05,14,35,27.20
2008,08,05,14,36,27.30
2008,08,05,14,37,27.30
2008,08,05,14,38,27.30
2008,08,05,14,39,27.30
2008,08,05,14,40,27.30
2008,08,05,14,41,27.30
2008,08,05,14,42,27.20
2008,08,05,14,43,27.10
2008,08,05,14,44,27.00
2008,08,05,14,45,27.00
2008,08,05,14,46,27.00
2008,08,05,14,47,27.00
2008,08,05,14,48,26.90
2008,08,05,14,49,26.90
2008,08,05,14,50,26.80
2008,08,05,14,51,26.70
2008,08,05,14,52,26.60
2008,08,05,14,53,26.50
2008,08,05,14,54,26.50
2008,08,05,14,55,26.40
2008,08,05,14,56,26.40
2008,08,05,14,57,26.50
2008,08,05,14,58,26.50
2008,08,05,14,59,26.40
2008,08,05,15,00,26.40
2008,08,05,15,01,26.50
2008,08,05,15,02,26.60
2008,08,05,15,03,26.60
2008,08,05,15,04,26.70
2008,08,05,15,05,26.80
2008,08,05,15,06,26.90
2008,08,05,15,07,26.80
2008,08,05,15,08,26.80
2008,08,05,15,09,26.70
2008,08,05,15,10,26.70
2008,08,05,15,11,26.70
2008,08,05,15,12,26.80
2008,08,05,15,13,26.90
2008,08,05,15,14,26.90
2008,08,05,15,15,27.00
2008,08,05,15,16,27.10
2008,08,05,15,17,27.00
2008,08,05,15,18,27.00
2008,08,05,15,19,27.00
2008,08,05,15,20,27.00
2008,08,05,15,21,27.10
2008,08,05,15,22,27.20
2008,08,05,15,23,27.20
2008,08,05,15,24,27.30
2008,08,05,15,25,27.30
2008,08,05,15,26,27.30
2008,08,05,15,27,27.40
2008,08,05,15,28,27.40
2008,08,05,15,29,27.50
2008,08,05,15,30,27.50
2008,08,05,15,31,27.50
2008,08,05,15,32,27.50
2008,08,05,15,33,27.40
2008,08,05,15,34,27.40
2008,08,05,15,35,27.40
2008,08,05,15,36,27.40
2008,08,05,15,37,27.40
2008,08,05,15,38,27.40
2008,08,05,15,39,27.40
2008,08,05,15,40,27.40
2008,08,05,15,41,27.40
2008,08,05,15,42,27.40
2008,08,05,15,43,27.40
2008,08,05,15,44,27.40
2008,08,05,15,45,27.40
2008,08,05,15,46,27.40
2008,08,05,15,47,27.50
2008,08,05,15,48,27.50
2008,08,05,15,49,27.60
2008,08,05,15,50,27.60
2008,08,05,15,51,27.60
2008,08,05,15,52,27.50
2008,08,05,15,53,27.40
2008,08,05,15,54,27.30
2008,08,05,15,55,27.30
2008,08,05,15,56,27.20
2008,08,05,15,57,27.20
2008,08,05,15,58,27.20
2008,08,05,15,59,27.20
2008,08,05,16,00,27.20
2008,08,05,16,01,27.30
2008,08,05,16,02,27.30
2008,08,05,16,03,27.30
2008,08,05,16,04,27.40
2008,08,05,16,05,27.50
2008,08,05,16,06,27.50
2008,08,05,16,07,27.60
2008,08,05,16,08,27.70
2008,08,05,16,09,27.70
2008,08,05,16,10,27.80
2008,08,05,16,11,27.90
2008,08,05,16,12,27.90
2008,08,05,16,13,27.90
2008,08,05,16,14,27.90
2008,08,05,16,15,27.90
2008,08,05,16,16,27.90
2008,08,05,16,17,27.90
2008,08,05,16,18,27.90
2008,08,05,16,19,27.90
2008,08,05,16,20,27.80
2008,08,05,16,21,27.80
2008,08,05,16,22,27.70
2008,08,05,16,23,27.70
2008,08,05,16,24,27.70
2008,08,05,16,25,27.70
2008,08,05,16,26,27.60
2008,08,05,16,27,27.60
2008,08,05,16,28,27.60
2008,08,05,16,29,27.60
2008,08,05,16,30,27.50
2008,08,05,16,31,27.40
2008,08,05,16,32,27.40
2008,08,05,16,33,27.40
2008,08,05,16,34,27.40
2008,08,05,16,35,27.50
2008,08,05,16,36,27.60
2008,08,05,16,37,27.60
2008,08,05,16,38,27.70
2008,08,05,16,39,27.70
2008,08,05,16,40,27.60
2008,08,05,16,41,27.50
2008,08,05,16,42,27.50
2008,08,05,16,43,27.50
2008,08,05,16,44,27.50
2008,08,05,16,45,27.50
2008,08,05,16,46,27.50
2008,08,05,16,47,27.50
2008,08,05,16,48,27.50
2008,08,05,16,49,27.60
2008,08,05,16,50,27.60
2008,08,05,16,51,27.70
2008,08,05,16,52,27.80
2008,08,05,16,53,27.90
2008,08,05,16,54,28.00
2008,08,05,16,55,28.10
2008,08,05,16,56,28.00
2008,08,05,16,57,27.90
2008,08,05,16,58,27.90
2008,08,05,16,59,27.80
2008,08,05,17,00,27.70
2008,08,05,17,01,27.70
2008,08,05,17,02,27.70
2008,08,05,17,03,27.70
2008,08,05,17,04,27.70
2008,08,05,17,05,27.80
2008,08,05,17,06,27.80
2008,08,05,17,07,27.80
2008,08,05,17,08,27.80
2008,08,05,17,09,27.80
2008,08,05,17,10,27.90
2008,08,05,17,11,27.90
2008,08,05,17,12,27.90
2008,08,05,17,13,27.90
2008,08,05,17,14,27.90
2008,08,05,17,15,27.90
2008,08,05,17,16,27.90
2008,08,05,17,17,27.80
2008,08,05,17,18,27.80
2008,08,05,17,19,27.80